Back to catalog

CZ-6A DEB

AlivePO
NORAD 55205·DEBRIS·🇨🇳 China

Launched Nov 11, 2022 from Taiyuan Satellite Launch Center

Loading…

Next Passes (next 24 hours)

TLE

FreshSource: Space-Track

Epoch: Sep 13, 2026, 22:08 UTC

1 55205U 22151VW  26256.92256462  .00006014  00000-0  10020-2 0  9991
2 55205  98.6116 324.0616 0068066   6.6942 353.5155 14.68880337198042

Track CZ-6A DEB in real time with AllMySat

Download on the App Store